Wind_Speed
26 23 22 21 22 22 21 19 18 19 20 21 20 20 20 20 21 21 22 22 23 23 24 25 25 25 26 26 26 26 27 27 27 28 29 29 28 27 27 27 28 28 28 29 29 29 29 29 30 30 31 31 31 32 33 35 36 39 42 43 41 41 40 40 43 41 37 37 39 39 41 41 42 42 42 40 39 41 38 31 25 23 22 20 20
23 21 21 22 23 24 23 21 19 20 21 21 21 21 21 21 21 21 21 22 23 23 24 25 25 26 26 26 27 28 28 28 29 29 29 29 29 29 28 28 28 28 28 28 29 30 31 31 31 30 32 33 33 32 33 34 35 36 40 43 43 41 40 40 41 39 35 34 35 37 39 40 40 41 41 40 39 41 39 32 27 26 25 23 22
23 22 23 24 24 25 25 23 21 21 21 22 21 21 21 21 22 21 21 22 23 23 24 25 25 26 26 26 27 28 29 29 30 31 30 30 30 30 29 29 29 29 28 28 29 31 32 32 32 31 32 34 35 35 34 34 35 35 36 38 40 41 40 40 40 40 36 33 33 35 37 39 39 39 40 40 38 39 39 34 30 28 29 27 24
27 28 28 28 27 28 27 25 23 22 22 22 22 22 22 23 23 22 22 22 22 23 24 25 26 27 27 27 28 29 29 30 31 31 31 31 31 31 31 31 31 31 30 30 30 31 32 33 33 33 33 34 35 36 36 36 36 36 35 34 35 37 38 39 41 40 37 35 35 35 36 38 39 40 42 41 39 37 38 38 35 32 31 30 27
30 31 32 32 31 30 29 26 23 23 23 23 23 23 23 24 24 24 23 23 23 23 24 25 26 27 29 30 30 31 32 32 32 32 32 32 32 32 33 33 33 33 32 32 32 32 33 33 33 33 34 35 35 35 37 38 37 37 36 34 32 33 35 37 39 40 39 38 36 36 36 38 40 42 43 43 42 41 39 40 40 37 34 33 32
33 34 34 34 33 31 28 26 24 24 24 24 24 24 25 25 25 25 24 24 24 25 25 27 28 29 30 31 32 33 34 35 35 34 34 33 33 34 34 35 35 35 35 34 34 34 35 34 34 34 35 35 36 35 36 38 39 39 38 37 36 33 33 34 36 39 41 40 37 37 38 39 40 42 43 44 46 47 45 44 43 41 40 37 34
35 36 36 36 34 30 28 27 26 25 25 25 25 25 26 26 26 26 25 26 26 27 28 29 30 31 32 33 34 35 36 37 37 37 36 35 35 35 36 36 37 37 37 36 36 36 37 36 35 35 35 36 36 35 35 36 39 40 40 40 39 37 35 34 34 36 39 41 40 39 38 38 39 40 41 43 46 49 50 48 46 45 44 41 37
38 37 38 36 31 28 28 28 27 26 25 26 26 26 27 27 26 26 26 27 28 29 30 31 32 33 34 35 35 36 37 38 38 38 38 37 37 37 37 37 38 38 38 38 38 38 38 38 37 36 36 37 37 37 36 35 36 39 41 41 41 41 40 38 35 35 38 41 42 41 39 38 38 40 41 42 44 48 50 49 47 46 46 45 42
39 37 35 31 27 28 29 28 27 26 26 26 26 27 27 27 26 26 27 29 30 30 32 32 33 34 35 36 37 37 38 39 39 39 39 38 38 38 38 38 38 39 39 39 39 39 39 39 39 38 37 38 38 38 38 36 36 37 39 41 42 43 43 42 39 37 37 40 42 43 41 40 40 41 43 43 43 44 46 48 49 49 47 46 46
40 36 30 26 27 28 28 27 27 26 27 27 27 27 27 27 27 28 29 30 31 32 33 34 35 36 37 38 38 39 40 40 40 39 39 39 39 39 39 39 39 39 39 40 40 40 40 40 40 39 38 38 39 39 39 38 37 37 36 38 41 43 44 44 42 40 39 40 41 42 42 43 43 43 44 43 42 43 45 48 50 51 51 51 49
40 34 28 25 27 28 27 26 26 26 27 28 28 27 28 28 28 29 30 31 33 34 35 36 37 37 39 40 40 40 40 40 40 39 40 40 39 39 39 39 40 40 40 40 40 40 41 41 41 41 39 39 39 40 40 40 39 38 37 36 38 41 44 45 44 44 43 43 42 41 42 43 44 44 43 42 43 45 46 47 49 50 52 53 52
39 33 27 27 27 26 26 25 26 27 27 27 28 28 28 29 30 30 31 33 34 35 36 37 38 39 40 41 41 41 41 40 40 39 40 40 40 40 40 40 40 41 41 41 41 41 42 42 42 42 41 40 39 39 41 42 41 40 39 37 36 38 42 45 46 45 45 46 45 44 44 44 44 45 45 43 42 44 44 45 47 48 48 49 50
34 32 28 27 27 25 25 25 26 27 27 27 28 29 29 30 31 31 32 33 34 35 36 37 38 39 40 42 42 43 42 41 40 40 40 40 40 41 41 41 41 42 42 42 42 42 43 44 44 43 42 41 40 40 41 42 43 43 42 40 38 37 38 42 45 46 46 47 48 47 45 44 45 45 45 43 43 44 44 44 45 46 47 47 46
30 29 28 27 27 25 25 25 26 26 26 28 28 29 30 30 31 32 32 34 35 36 36 37 38 39 41 42 43 43 43 42 41 41 41 40 41 41 42 43 43 43 43 43 44 44 44 45 45 45 45 44 43 43 43 43 44 45 45 44 41 39 38 38 41 44 46 48 49 49 47 45 45 45 43 42 43 44 45 44 42 42 45 44 42
34 30 27 26 26 26 25 25 25 25 26 27 28 29 30 30 31 32 33 34 35 36 36 37 39 40 42 43 44 44 43 43 42 42 41 41 41 42 43 45 45 45 45 45 45 46 46 46 47 47 47 47 46 46 46 46 46 47 47 47 45 42 40 38 39 41 45 48 49 49 48 47 47 47 45 43 42 41 41 40 39 40 41 40 40
40 32 26 24 26 27 25 24 24 24 25 25 26 28 29 30 31 32 33 35 35 36 37 38 39 41 42 43 44 44 43 42 41 41 42 42 43 44 45 46 47 47 47 47 47 48 48 48 49 50 51 51 51 51 50 50 50 49 49 49 48 47 44 40 39 40 43 46 49 49 48 47 48 49 47 45 43 42 41 39 38 40 41 40 41
44 33 24 24 27 26 24 23 23 23 23 23 25 26 28 29 31 33 34 35 35 36 38 39 40 41 43 43 43 43 42 40 40 41 42 42 44 45 46 48 49 50 50 50 50 50 50 50 51 52 53 53 54 55 55 54 53 52 51 51 51 51 48 43 41 41 42 44 46 48 49 48 49 51 51 49 47 46 46 44 40 39 39 41 42
41 27 22 26 27 25 22 21 22 22 21 22 24 25 27 29 31 33 34 34 36 37 38 39 40 41 42 42 41 41 40 40 40 41 42 43 45 46 48 50 51 52 52 52 53 53 52 52 52 53 54 54 55 57 57 57 57 55 54 53 53 53 51 47 45 44 43 43 44 46 48 49 49 51 52 51 50 50 49 48 44 39 37 39 41
33 24 24 28 26 22 19 18 19 20 21 22 23 24 27 29 31 33 33 34 35 37 37 39 39 39 39 39 39 40 40 39 40 41 42 44 46 47 49 51 53 53 54 54 54 54 54 53 52 53 54 54 55 56 57 57 58 57 56 55 54 53 52 51 49 47 46 45 45 45 45 48 50 51 52 52 51 51 49 47 46 44 40 37 37
29 27 27 26 23 20 17 17 19 20 20 21 23 24 27 29 31 32 32 33 34 35 36 37 37 38 38 38 38 39 40 41 41 41 43 44 46 48 50 52 54 55 55 55 56 55 54 53 52 52 53 52 51 51 52 53 54 54 55 56 56 53 52 54 53 51 49 47 46 45 44 45 48 49 50 51 51 50 48 46 46 44 41 39 39
28 27 25 23 22 19 17 19 21 20 20 21 23 25 28 29 30 30 30 31 32 34 34 35 36 37 37 37 38 39 40 41 42 42 43 44 46 48 51 53 54 55 56 57 57 56 55 54 51 47 45 44 44 45 46 48 49 50 51 54 55 54 54 55 56 55 53 49 47 45 43 43 44 45 47 49 50 49 48 46 45 43 41 42 43
26 24 22 21 20 18 19 21 20 19 20 21 23 25 27 29 29 28 28 30 32 33 34 35 36 37 37 37 38 39 40 41 42 43 43 44 46 48 51 53 54 56 58 58 58 57 54 49 43 38 37 38 40 42 43 44 46 47 48 48 50 53 56 57 57 56 54 51 49 46 44 42 42 42 44 46 47 48 48 46 44 43 41 41 42
22 21 20 19 18 19 21 21 19 18 19 21 23 25 26 27 27 27 28 29 31 33 34 35 36 37 37 37 38 38 40 40 41 42 43 44 46 48 51 53 54 56 57 57 55 51 44 38 34 32 34 37 39 40 41 42 44 46 46 44 45 48 53 57 58 57 55 53 50 48 45 43 41 41 42 42 43 45 46 45 43 42 41 40 40
20 20 19 19 20 20 20 17 16 17 19 21 23 24 24 25 26 26 26 28 30 31 33 34 36 37 38 38 38 39 40 40 41 41 43 45 46 48 50 51 52 52 53 52 48 42 36 34 32 33 35 37 38 39 40 41 42 43 44 43 43 44 49 54 57 56 56 54 50 48 46 43 42 42 41 40 40 41 42 42 42 41 41 42 42
20 19 18 20 20 18 14 13 14 16 18 19 20 21 22 23 24 24 25 27 29 30 32 33 35 37 38 39 39 39 39 40 41 42 43 45 46 47 47 46 46 47 47 46 43 39 36 35 34 36 37 36 35 37 39 41 41 41 42 43 44 45 47 51 53 54 54 53 50 49 46 42 41 41 40 40 39 37 37 38 39 40 42 43 44
19 18 17 17 15 11 8 10 12 13 15 16 17 18 19 21 22 23 25 26 28 30 31 33 35 36 38 39 39 39 39 39 41 42 44 45 45 43 42 41 41 42 43 43 41 39 38 37 37 37 34 31 32 35 37 39 39 40 41 43 46 48 48 49 50 50 51 51 50 49 46 42 40 40 40 40 38 35 34 36 36 38 40 40 41
15 15 13 11 7 5 5 7 9 11 12 14 15 17 18 19 21 23 24 25 27 29 31 33 36 37 38 39 39 39 39 40 42 44 44 43 41 38 37 36 36 37 39 39 38 38 38 37 36 34 31 29 30 32 33 35 37 40 41 44 47 49 49 49 49 48 48 50 50 49 46 41 39 38 37 37 37 35 33 32 32 33 36 37 38
11 11 8 5 1 3 6 9 10 11 12 15 17 19 20 20 21 23 24 26 28 30 32 34 36 37 39 40 41 41 41 42 43 43 42 39 36 34 33 32 32 33 33 32 33 34 34 33 31 30 28 27 27 28 29 32 35 38 41 42 45 46 48 48 48 47 48 49 49 48 44 39 38 36 34 34 36 34 32 31 29 29 30 31 34
12 10 6 3 3 6 9 11 12 11 14 18 21 22 23 24 24 25 25 27 29 31 33 36 37 39 40 41 43 43 43 43 43 41 38 36 34 33 32 31 30 29 27 26 27 27 27 27 28 27 26 24 24 25 27 28 31 34 36 37 40 43 46 47 47 47 48 49 48 45 41 38 37 34 30 31 33 32 31 31 30 29 29 28 30
14 11 7 4 6 9 11 12 12 14 16 19 22 24 25 26 26 26 27 29 31 32 34 36 37 39 40 41 42 43 44 44 43 40 37 34 32 33 32 30 28 26 23 22 22 22 23 24 25 24 23 22 23 24 23 24 25 26 27 30 34 38 42 44 45 45 46 46 45 42 39 38 37 31 26 28 30 29 28 28 28 29 29 28 29
13 9 5 5 8 10 11 12 14 16 18 19 22 24 27 29 28 27 28 30 31 32 34 35 36 37 39 40 41 42 42 42 41 38 35 33 32 31 29 26 24 22 20 19 18 19 22 22 21 21 20 20 19 18 15 14 14 15 18 22 27 33 38 40 41 42 44 42 40 38 37 36 34 29 25 26 27 27 27 26 26 28 28 28 29
9 5 3 4 7 8 10 12 15 17 19 20 22 24 28 30 30 29 29 30 30 31 33 33 34 35 37 39 41 42 42 41 38 35 33 30 29 27 26 24 21 17 15 16 17 19 21 20 17 17 17 16 13 10 8 9 13 16 18 20 22 27 32 34 35 36 37 36 36 35 34 32 30 27 26 26 26 26 26 26 27 28 28 28 29
7 4 4 6 6 7 10 13 16 18 19 21 22 24 27 30 29 29 29 29 29 30 31 32 33 34 35 38 40 41 41 39 36 34 31 28 26 24 23 21 17 13 13 15 17 19 18 14 12 12 13 12 11 10 12 14 15 17 19 21 23 25 26 28 29 30 32 33 33 33 32 30 27 23 23 24 25 25 26 27 28 28 27 28 31
7 7 8 6 5 7 11 14 17 19 20 21 23 25 26 28 28 28 27 27 28 29 30 30 31 33 35 38 39 39 39 37 34 32 30 27 24 22 20 17 14 12 12 13 14 14 12 9 8 7 9 12 13 14 17 17 16 15 15 17 19 22 25 28 29 30 32 33 32 32 31 29 25 22 22 25 26 26 26 28 29 28 28 29 31
7 7 6 5 5 8 12 15 18 19 20 21 23 24 25 27 27 27 27 27 28 29 29 30 31 33 35 37 38 38 38 35 32 29 28 26 24 19 16 13 11 11 11 11 11 10 8 9 9 8 10 13 16 17 19 20 20 17 14 13 13 16 22 28 31 33 34 34 32 30 28 27 26 24 24 26 27 26 26 28 28 26 27 29 29
5 3 4 7 8 10 14 16 18 19 19 20 22 23 24 25 25 25 26 27 28 28 30 31 32 33 35 35 36 36 36 34 30 27 25 25 24 19 14 10 8 8 9 10 10 9 9 8 9 10 12 14 17 18 18 20 22 21 18 16 16 16 18 23 27 31 33 34 32 29 27 27 27 25 23 25 28 28 27 27 25 25 28 30 31
1 5 8 10 12 13 14 16 16 17 18 20 22 22 21 21 22 24 26 27 28 29 31 33 34 34 35 35 35 36 34 31 28 23 20 20 20 18 14 9 7 9 9 8 9 10 10 9 8 9 11 13 17 19 19 19 22 23 21 19 18 18 19 20 21 24 27 28 29 28 27 26 25 24 24 26 29 29 29 28 27 27 27 28 29
5 8 11 13 14 14 14 14 15 15 16 19 21 21 18 17 20 25 28 28 30 32 33 34 35 36 36 36 36 36 35 31 26 20 16 14 14 13 11 8 7 8 9 6 7 10 10 10 9 9 10 12 15 18 20 20 21 22 22 20 18 19 20 21 21 23 25 27 28 28 28 27 25 24 25 26 27 29 30 30 30 30 27 25 26
7 8 12 14 14 13 12 12 13 14 15 17 18 19 16 14 18 25 29 30 34 36 36 35 35 36 36 37 37 37 36 34 30 23 17 13 11 9 7 6 5 6 7 7 5 6 7 7 8 9 10 12 14 17 20 21 21 20 19 18 18 19 20 20 21 22 25 29 32 32 32 32 28 24 24 26 27 29 31 30 31 32 29 26 25
8 10 12 13 13 12 11 11 12 13 13 14 17 18 15 13 17 22 26 29 33 35 35 36 35 35 36 37 38 39 38 37 35 29 22 16 13 11 8 6 4 4 5 6 5 4 5 5 6 7 9 10 13 17 21 22 21 20 18 17 18 18 19 20 21 21 22 26 31 32 32 30 27 24 24 26 27 27 27 27 27 28 28 26 25
11 12 12 13 13 12 10 10 11 11 12 13 16 17 16 16 19 21 23 27 30 31 33 35 35 35 36 37 38 39 39 38 37 34 28 21 17 14 11 8 6 4 4 5 5 5 7 7 7 8 8 8 10 15 21 25 24 22 21 21 21 22 22 21 21 21 21 23 26 27 26 25 24 24 25 26 23 21 21 22 22 24 26 27 28
11 11 11 11 11 9 7 8 9 10 11 13 15 16 17 18 20 21 22 25 27 28 31 34 35 35 36 37 37 38 38 38 38 37 33 27 21 18 15 12 8 5 3 3 3 5 7 8 8 8 8 8 8 12 18 24 25 25 24 23 22 23 25 24 22 21 20 21 23 24 25 25 25 25 25 24 21 19 20 22 23 25 26 28 31
8 8 8 7 5 4 5 6 7 9 10 11 13 15 16 16 18 19 21 24 26 26 28 32 35 36 36 36 37 38 38 38 38 38 36 31 26 21 19 16 13 9 6 3 1 1 3 5 6 6 7 9 10 11 14 18 21 23 24 23 20 20 22 24 23 20 20 21 23 24 25 24 23 22 22 21 21 22 23 24 25 26 28 30 31
6 6 5 3 1 2 3 4 5 6 6 9 13 15 14 15 16 18 19 21 23 24 26 30 33 36 37 37 37 37 38 39 39 38 37 34 30 26 23 20 17 14 13 12 10 7 5 2 2 5 7 9 12 13 14 14 16 18 20 21 20 19 20 23 23 22 21 21 22 22 22 21 20 20 21 22 23 23 24 25 27 29 30 30 28
4 2 1 1 1 2 3 4 4 4 5 9 12 13 13 14 16 17 18 19 20 21 25 28 31 34 37 38 37 38 38 39 39 39 38 36 34 31 28 24 21 19 18 19 19 16 12 8 4 3 4 7 11 15 17 17 17 18 18 18 19 18 19 21 23 23 22 21 22 22 22 21 21 22 23 24 24 23 25 28 31 31 31 29 28
1 2 3 2 1 2 3 5 5 5 7 10 12 12 12 13 13 14 15 17 18 21 24 26 29 32 35 37 38 38 38 38 39 39 38 37 36 34 32 29 27 25 22 22 23 23 20 16 13 10 8 7 9 13 16 17 18 19 20 20 20 19 18 19 20 21 21 21 22 23 22 21 21 23 24 25 25 27 29 32 31 30 31 31 31
2 3 3 3 3 3 4 6 7 8 8 8 9 11 12 12 12 12 12 14 18 21 23 25 28 30 33 35 38 39 38 38 38 38 38 38 37 36 35 33 31 30 27 26 25 25 24 22 21 19 16 13 11 12 14 15 16 17 19 20 21 20 18 16 16 17 18 18 21 23 22 21 21 22 24 26 28 29 30 30 30 31 32 32 32
3 3 2 3 4 5 5 5 6 7 7 7 8 9 10 11 11 12 12 13 15 18 21 23 25 27 30 32 35 37 39 39 38 38 38 38 38 37 36 35 33 32 31 30 28 27 26 25 25 24 22 20 17 15 14 14 13 14 15 17 19 18 15 14 14 15 16 17 20 21 20 20 22 25 27 28 29 30 30 31 32 33 33 32 31
3 3 3 3 4 5 5 6 6 6 6 6 6 7 8 9 10 11 12 12 13 15 17 20 22 24 27 29 31 34 36 38 39 38 37 37 38 38 37 35 33 32 32 32 31 30 29 28 27 25 24 23 21 20 19 18 16 14 14 15 15 14 13 12 12 14 16 18 20 21 22 23 26 28 29 30 31 32 33 34 34 34 33 33 31
4 4 4 4 4 5 7 7 6 6 6 6 5 5 6 7 8 9 10 11 12 13 14 17 19 21 24 26 28 31 33 36 38 38 37 36 37 37 37 35 33 32 31 31 31 31 30 29 27 26 25 24 22 21 20 20 19 18 16 16 15 15 14 14 14 16 18 20 22 23 25 26 27 29 31 33 35 36 36 35 35 34 34 33 32
4 4 4 4 4 5 7 7 7 7 7 6 6 6 7 7 8 8 9 10 11 11 13 14 16 18 20 23 25 28 31 33 36 37 38 37 36 36 36 35 34 32 31 30 29 29 29 28 27 25 24 23 22 20 18 18 17 17 17 16 17 17 17 18 19 21 23 24 25 26 27 29 30 33 35 37 38 37 37 36 35 34 34 32 30
Wind_Direction
257 259 260 263 271 279 283 282 283 286 288 289 290 288 285 284 283 282 282 282 283 283 284 285 286 288 288 289 289 288 287 286 285 284 285 285 284 282 279 278 277 278 277 276 274 272 269 265 262 261 259 256 253 251 250 249 246 244 242 242 245 249 252 254 257 256 253 250 248 248 249 247 245 245 247 250 254 256 257 259 264 269 271 269 270
260 263 262 263 272 282 286 286 285 288 289 289 290 289 287 286 285 284 284 283 283 284 285 286 286 287 288 289 289 289 288 287 285 284 283 283 283 281 279 276 274 274 275 275 274 272 270 267 264 261 259 257 255 252 250 249 250 249 249 248 246 245 246 250 255 257 255 252 251 250 249 248 244 243 245 248 252 254 255 257 261 264 266 267 269
265 268 267 268 278 287 290 289 288 288 287 287 287 286 286 287 286 286 285 284 285 286 286 287 287 287 287 287 287 288 288 288 287 286 284 283 282 280 278 275 273 272 272 272 271 271 269 268 266 263 260 258 255 253 251 249 248 250 253 255 253 250 247 246 250 253 253 253 252 250 248 248 245 242 243 245 249 253 254 255 257 258 259 262 266
266 269 271 273 281 289 291 288 288 288 287 285 285 285 285 287 287 287 286 285 285 286 286 286 287 287 288 288 288 288 287 287 287 286 285 283 281 279 277 274 271 270 270 270 269 268 268 268 267 265 263 260 257 253 252 251 248 247 248 252 257 258 255 249 247 248 250 251 252 250 247 246 245 241 240 242 245 250 254 254 254 255 255 257 260
266 268 272 273 279 287 288 287 288 287 285 284 283 283 285 287 288 289 288 287 287 286 286 286 287 288 289 289 290 289 288 287 286 286 285 283 281 279 276 274 271 268 267 268 268 267 267 267 267 266 265 263 261 257 253 252 250 247 245 244 247 255 259 257 250 246 245 248 250 250 246 243 242 240 239 240 243 247 251 252 253 254 255 256 257
267 269 272 273 278 283 284 285 288 285 283 283 283 283 285 287 289 290 290 289 288 288 288 288 288 289 290 291 291 291 291 290 288 287 285 283 281 277 274 272 270 268 266 265 266 267 267 266 266 266 266 266 264 262 257 253 251 248 246 243 240 242 250 256 254 248 245 245 246 247 246 243 241 241 242 243 245 248 249 250 251 252 253 255 257
266 268 271 272 275 278 280 284 285 282 280 281 282 283 285 288 290 290 290 289 289 290 290 291 291 291 292 292 293 293 292 292 291 290 288 285 281 278 275 272 269 268 267 265 265 267 267 267 266 266 266 267 266 265 262 257 253 249 247 245 241 238 238 245 251 251 248 244 242 244 246 245 244 245 246 245 246 248 248 246 247 248 250 253 255
264 266 268 269 270 272 277 281 280 278 278 280 281 283 285 288 289 288 288 288 290 291 292 292 292 293 293 293 293 293 293 293 293 292 290 287 283 279 276 273 271 269 268 267 266 267 268 268 269 267 266 266 266 266 265 262 257 252 249 247 244 240 237 236 240 246 248 246 243 242 245 248 249 250 250 247 245 247 249 247 244 245 249 253 254
261 263 263 264 266 270 274 276 277 277 279 280 282 284 286 287 287 287 288 289 291 291 291 291 292 292 293 293 294 294 294 294 293 292 290 288 284 281 278 275 273 271 270 269 268 267 267 268 268 269 267 266 265 265 265 264 261 257 252 248 247 245 242 237 234 236 242 245 243 242 244 246 248 249 251 250 248 248 252 251 248 246 248 252 254
256 255 255 260 266 270 272 273 275 278 280 282 284 286 287 287 287 288 289 290 290 289 289 289 290 292 293 294 294 294 294 294 294 292 290 287 284 281 278 276 274 272 271 270 270 269 268 268 267 267 267 266 264 263 262 262 262 259 255 250 247 247 246 244 239 234 236 241 241 242 244 246 247 248 250 251 251 250 250 250 251 250 249 250 253
248 246 249 262 269 270 271 272 274 277 279 282 285 286 287 287 287 288 288 288 287 287 288 290 292 294 295 295 295 294 294 293 292 291 288 286 283 279 276 274 273 272 271 270 270 270 270 269 268 267 266 265 263 261 260 259 259 258 256 252 248 246 245 246 244 240 238 238 238 239 243 246 249 252 253 252 251 251 250 248 250 251 251 251 252
241 240 247 264 272 271 271 270 272 276 279 283 285 284 285 285 286 286 285 286 286 287 290 292 294 296 296 296 295 294 293 292 290 288 285 282 280 277 275 273 271 270 270 270 271 271 270 270 269 268 267 265 263 261 258 256 256 256 254 252 249 246 245 244 244 243 241 240 239 238 240 242 245 250 253 252 252 253 252 250 250 252 254 255 254
235 238 247 264 272 271 269 268 271 276 279 280 280 280 282 282 283 284 284 285 286 288 290 292 295 296 295 295 294 293 293 292 289 286 282 279 276 274 273 271 270 270 270 270 271 271 270 270 269 268 267 265 263 261 258 255 253 253 252 251 249 247 245 245 244 243 242 241 239 237 238 242 244 246 249 251 252 253 254 253 254 254 255 257 258
232 237 245 261 270 267 265 267 270 273 273 274 275 278 280 281 282 283 284 286 287 288 291 293 294 294 294 294 294 294 293 291 288 284 280 276 273 271 270 270 270 270 270 271 271 271 270 270 269 268 266 264 263 261 259 256 253 251 250 249 248 246 244 243 243 243 242 242 241 238 237 240 245 247 249 251 252 253 255 256 256 257 256 256 259
237 240 245 257 265 264 264 266 269 270 271 272 275 277 278 279 282 284 286 287 288 291 293 294 294 294 294 294 294 293 292 290 286 283 279 275 272 270 269 269 269 270 270 270 270 271 271 271 271 270 270 268 266 264 261 258 255 252 248 247 247 246 244 242 242 242 241 241 242 241 239 239 243 247 249 251 254 255 256 256 254 254 255 253 254
244 244 248 256 260 263 266 268 269 271 273 275 275 276 277 280 283 285 287 289 292 295 296 297 297 296 295 294 293 292 290 288 286 283 280 277 274 272 270 270 270 269 269 269 268 268 269 270 270 271 271 271 270 268 265 261 258 253 249 246 245 245 244 242 242 243 242 241 241 240 239 239 241 244 247 248 252 256 258 257 252 250 251 251 252
248 243 247 255 258 262 266 268 271 274 275 274 273 274 278 282 284 287 291 296 300 301 300 299 298 296 295 294 292 291 289 288 286 284 282 280 277 275 274 273 272 271 271 270 269 269 269 269 269 269 270 270 270 269 267 264 260 256 251 247 244 243 243 242 242 243 244 244 243 241 239 237 238 241 243 244 245 250 254 255 254 253 251 250 251
249 242 247 254 256 260 264 267 270 271 271 272 274 278 283 287 290 294 299 303 302 300 299 297 295 294 294 293 292 291 290 289 288 286 284 283 281 279 278 276 275 274 274 273 272 271 271 270 271 271 271 271 271 270 268 265 262 257 253 249 245 242 241 241 241 243 243 243 244 243 241 238 237 238 241 242 243 244 246 250 253 254 253 251 253
243 240 245 251 254 258 260 259 261 266 271 275 280 285 289 292 295 299 301 301 298 297 296 296 294 294 293 293 292 292 291 290 289 288 287 286 284 283 281 280 279 278 277 276 275 274 273 273 274 274 274 273 272 270 268 266 262 258 254 250 245 242 241 240 241 242 243 242 240 241 241 240 238 238 239 240 242 244 244 246 249 251 252 253 254
233 237 243 249 254 256 256 259 265 271 275 279 284 289 292 294 297 299 298 297 296 296 296 296 295 295 295 295 294 294 293 292 291 290 289 288 287 286 285 283 283 282 281 280 279 278 277 277 276 276 275 272 270 267 265 264 262 259 254 250 246 242 240 240 240 242 244 243 239 237 238 239 238 238 240 240 242 244 245 246 247 249 249 250 251
231 238 244 248 251 255 262 270 275 277 280 286 291 293 294 295 296 298 299 299 299 299 298 297 297 297 297 297 296 295 294 293 292 291 290 289 289 288 287 286 286 285 284 284 283 282 281 280 278 274 270 267 264 262 260 259 259 258 255 251 247 242 239 238 238 240 243 244 241 237 236 237 236 236 239 240 240 243 245 246 247 249 248 247 249
230 236 242 244 249 259 268 273 275 279 284 290 292 293 294 296 299 302 303 303 301 301 301 301 300 299 299 298 297 296 295 295 294 294 293 292 290 289 288 288 288 287 287 286 285 284 283 280 275 270 266 264 262 259 256 255 255 256 254 251 248 243 239 237 236 238 240 242 241 237 235 234 232 232 236 239 239 240 243 244 246 248 248 248 249
226 231 235 240 250 259 263 265 269 277 286 292 295 298 302 304 306 308 307 306 305 304 304 304 302 301 301 300 300 299 298 297 296 295 294 293 292 291 291 290 289 288 287 286 286 285 282 277 273 272 272 268 262 258 254 252 253 253 251 248 246 243 239 237 235 235 237 239 239 236 232 231 229 228 231 235 237 239 242 245 245 244 244 246 248
222 225 228 237 245 249 252 261 275 289 298 303 306 309 310 310 311 311 312 311 309 308 307 306 305 305 304 303 303 302 300 299 298 297 296 295 294 294 293 291 288 286 285 285 286 285 282 278 278 281 280 272 262 256 252 250 251 251 247 244 242 240 238 236 234 234 235 237 236 234 231 229 228 226 227 230 235 238 241 243 243 241 240 243 246
219 225 232 237 239 242 254 278 298 307 311 312 313 314 314 314 315 315 316 315 312 311 311 311 309 309 308 306 305 304 303 302 301 301 300 300 299 297 294 289 286 284 283 283 285 287 285 283 284 286 283 272 259 252 250 250 251 252 248 244 239 236 235 234 233 232 232 233 232 231 230 228 227 226 226 228 233 237 238 239 240 239 240 242 243
223 231 232 230 235 250 280 306 316 319 319 320 321 321 320 321 323 322 319 317 316 317 317 315 314 312 311 309 308 307 306 306 306 307 306 304 301 297 292 288 284 282 281 282 285 286 285 284 284 285 280 266 254 252 252 251 252 251 248 244 238 233 231 232 231 229 228 228 227 227 227 226 223 223 224 227 232 237 237 236 238 240 241 243 244
227 224 218 219 237 278 317 335 340 338 336 334 335 335 334 332 331 328 324 321 322 323 321 319 318 316 315 314 313 313 313 313 312 311 308 304 300 296 291 287 284 281 281 282 282 282 282 282 282 282 276 263 256 256 255 254 253 250 247 243 237 231 228 228 228 225 222 221 222 222 223 222 220 220 222 227 233 238 238 236 237 239 240 241 242
216 201 196 202 244 349 357 3 4 360 355 351 347 346 344 339 334 331 329 329 329 328 327 324 323 322 322 321 320 319 318 317 315 313 310 306 302 298 294 290 286 284 284 283 279 278 279 280 280 278 273 267 263 261 258 258 257 253 249 244 237 230 224 224 224 220 216 215 216 218 219 218 216 216 220 225 230 234 235 234 234 237 237 237 238
193 174 158 119 42 11 359 360 0 357 357 355 349 346 347 343 337 335 335 334 334 333 332 329 328 328 328 326 324 323 321 319 319 317 314 309 306 303 301 298 295 293 291 287 282 279 279 279 278 276 272 270 269 266 262 261 259 255 248 240 233 226 220 219 218 216 213 212 212 213 214 213 211 214 219 224 226 230 233 234 236 238 237 235 238
177 161 134 76 25 357 344 345 347 348 354 352 344 343 346 343 338 337 339 339 339 337 335 333 333 332 330 328 327 326 325 324 323 321 317 312 307 305 306 306 304 302 297 291 288 286 283 280 277 273 272 273 274 270 264 260 258 250 237 227 223 220 217 216 214 211 210 210 209 210 211 209 209 212 219 224 226 230 234 236 238 239 238 237 239
176 150 102 34 359 340 333 337 341 344 347 342 337 340 344 341 339 341 342 343 342 338 336 336 337 334 331 330 330 329 328 327 325 321 317 312 309 309 310 310 308 305 300 295 292 291 288 282 276 272 271 272 270 264 256 246 233 217 209 212 215 214 213 213 210 208 207 206 205 207 209 209 209 214 220 223 226 232 236 238 238 237 236 236 235
167 123 60 336 321 323 331 337 338 337 335 331 333 340 343 340 341 344 345 344 341 338 338 340 339 336 335 335 334 332 331 329 326 322 318 315 313 312 312 311 310 308 305 302 297 292 287 280 272 268 263 258 253 240 208 182 180 183 189 196 205 212 212 209 206 205 204 203 203 205 207 206 208 213 219 224 229 234 236 238 239 237 236 236 229
144 159 242 273 296 322 334 337 336 331 325 324 333 342 342 339 340 344 344 342 339 340 344 345 341 339 341 341 338 335 333 331 328 325 324 322 319 314 311 309 306 303 303 302 297 291 282 267 257 255 244 232 222 198 175 173 186 196 196 194 200 208 207 201 199 200 200 201 203 204 204 204 205 211 219 225 231 235 236 238 241 239 235 231 225
166 211 244 269 302 327 331 332 332 327 320 322 334 342 339 338 341 343 341 338 339 345 351 349 345 346 348 346 342 339 337 335 332 327 326 327 325 317 313 309 299 291 295 296 292 288 269 235 226 232 216 203 198 190 184 186 194 203 206 204 206 208 201 193 192 193 195 199 202 201 201 203 206 214 224 229 232 235 237 241 244 239 230 225 222
208 228 261 294 320 331 326 324 324 320 316 324 335 338 338 340 342 339 337 340 345 351 354 353 353 356 355 350 346 344 342 340 336 329 326 328 328 322 315 308 296 288 291 291 287 279 254 220 216 219 206 194 191 192 194 192 190 194 197 193 195 203 199 192 190 191 194 198 199 198 200 204 205 210 223 233 237 236 237 243 245 234 220 217 219
207 232 315 329 336 332 322 318 316 312 314 327 335 335 339 344 342 339 342 350 354 356 358 359 1 2 359 354 352 351 349 345 340 334 329 328 329 325 317 311 310 308 300 288 275 265 248 228 219 216 214 206 197 195 197 194 189 190 191 182 177 182 187 189 191 195 198 199 199 198 198 199 200 204 216 232 238 237 239 242 238 224 218 222 224
19 352 341 334 330 323 315 311 307 306 316 329 333 333 341 350 351 352 356 1 2 4 5 4 4 4 2 0 359 359 357 352 346 340 333 327 326 322 314 309 319 327 320 294 265 253 248 239 222 208 212 211 201 195 197 195 189 187 185 180 174 174 178 184 191 196 198 199 199 201 202 204 210 218 229 238 239 239 241 237 225 218 224 231 229
321 322 327 325 321 319 314 305 300 306 319 327 330 334 340 350 2 8 9 8 10 12 11 8 6 5 4 4 5 5 3 360 356 350 340 332 330 323 311 300 304 324 335 317 265 246 244 245 234 215 211 214 207 199 196 194 191 189 185 177 169 170 177 185 191 196 199 197 194 198 206 212 219 229 242 246 240 236 237 232 218 215 224 230 230
284 302 316 318 317 318 311 297 298 311 320 325 333 340 340 347 7 17 16 14 16 16 12 10 9 6 4 6 9 9 7 7 7 5 357 354 357 351 332 314 300 308 327 327 289 242 228 234 234 222 217 219 217 208 199 192 191 194 194 187 176 171 175 184 191 197 200 198 196 200 208 213 219 232 245 245 237 232 231 225 215 215 223 231 236
294 310 314 313 314 313 300 287 295 311 320 327 340 348 351 1 14 17 15 16 18 16 12 10 10 8 7 8 11 11 11 11 12 12 9 10 16 15 4 349 329 307 309 313 295 235 205 210 220 222 221 219 215 211 203 194 189 190 198 205 201 190 184 184 187 191 195 196 198 202 206 211 220 233 240 238 233 229 224 217 211 215 223 232 237
302 307 307 307 307 304 293 286 299 315 323 331 344 354 3 12 15 13 13 17 19 16 13 12 12 11 10 11 12 13 13 13 14 15 14 15 20 25 24 18 6 343 321 308 281 240 227 227 224 219 216 211 205 202 199 195 189 186 191 201 206 205 202 196 187 184 186 188 191 196 203 212 219 224 229 233 230 221 212 209 212 219 224 225 224
295 298 300 300 300 301 298 299 314 329 333 338 351 2 8 11 9 8 14 20 20 18 17 16 15 15 14 13 14 15 15 15 17 17 17 18 22 28 32 32 26 14 354 324 282 248 232 223 213 205 201 197 189 186 190 194 192 188 188 193 197 200 203 200 190 184 186 191 195 202 212 217 217 218 224 226 217 207 209 216 220 220 217 212 208
277 281 288 291 296 307 304 306 328 343 345 351 1 6 9 9 2 1 12 20 19 18 21 21 19 19 18 15 15 17 18 18 19 20 20 21 25 30 35 37 39 48 65 80 93 180 192 193 200 208 211 207 196 183 182 188 190 188 188 189 189 188 189 187 184 186 193 198 202 205 209 211 211 213 215 212 207 210 219 221 217 210 205 200 196
247 259 273 268 223 229 267 293 329 348 357 11 14 11 9 7 358 357 9 14 11 15 25 26 23 23 22 19 17 18 19 20 21 21 22 24 28 33 39 41 44 55 71 82 87 88 86 99 196 222 224 215 206 198 192 189 188 188 188 187 187 188 186 183 184 190 196 199 200 202 203 204 206 205 204 206 213 221 220 211 203 198 193 189 184
235 262 325 330 252 256 284 311 330 340 8 28 29 21 14 8 359 358 3 4 5 17 29 29 25 25 25 23 21 20 20 21 22 22 23 26 29 35 40 43 45 52 63 71 75 77 77 77 94 146 179 190 194 197 198 196 193 193 193 192 192 194 194 193 193 195 197 199 200 200 201 204 206 206 208 213 217 215 205 196 193 189 183 176 169
164 77 55 39 10 340 345 360 17 30 35 36 32 24 19 15 6 359 357 358 7 21 30 30 27 26 25 24 24 23 21 22 24 24 24 26 29 34 39 43 46 49 54 61 66 70 73 74 77 88 106 131 158 176 185 190 192 192 192 192 193 196 199 199 198 197 198 200 199 200 205 209 210 210 211 211 207 201 193 187 183 177 168 160 155
101 70 50 34 23 13 5 11 27 41 43 34 23 19 19 19 15 9 4 3 9 18 26 29 29 27 25 25 26 25 23 22 24 26 26 26 28 32 37 41 45 48 50 52 57 62 67 69 70 74 82 96 119 144 160 170 177 180 180 182 187 193 197 195 192 192 195 196 197 200 205 209 205 200 199 196 192 189 184 175 168 163 158 152 148
101 74 52 28 20 19 12 2 5 16 23 22 16 12 11 12 13 13 12 10 12 18 23 26 28 27 26 25 25 26 26 24 24 25 27 28 28 30 33 37 42 46 48 49 51 54 58 61 63 66 71 78 89 105 121 134 145 154 160 165 173 180 181 177 176 179 180 183 187 190 193 194 192 189 186 183 178 172 167 163 160 158 154 149 144
113 97 80 49 28 24 21 10 4 5 7 8 5 360 359 2 4 4 5 9 12 17 22 25 27 28 27 26 26 27 28 27 25 25 27 29 30 30 31 33 37 41 45 48 48 49 50 52 55 58 62 66 71 80 89 98 106 115 127 138 148 154 154 157 164 169 169 171 174 175 175 178 179 177 173 168 163 159 158 158 157 153 148 142 136
120 105 83 59 39 28 22 16 12 6 359 354 347 340 339 342 344 347 353 359 3 9 17 23 26 26 27 27 28 28 29 29 28 26 26 29 31 32 31 31 34 38 42 46 47 48 48 48 49 51 55 57 60 65 73 82 88 94 102 111 119 125 130 137 144 149 152 156 160 163 165 168 168 165 161 158 157 156 156 155 152 147 141 135 131
126 108 80 56 36 25 19 15 11 6 359 350 340 331 325 323 324 330 339 344 349 358 9 16 20 23 25 25 26 27 28 29 29 28 27 28 31 33 33 32 32 36 41 45 48 50 50 50 49 50 51 54 58 61 67 76 85 93 100 106 113 119 125 132 137 141 145 149 153 155 157 158 159 158 157 155 154 153 152 148 143 137 132 128 126
Height
3095 3096 3097 3098 3099 3099 3098 3098 3097 3097 3096 3096 3095 3095 3095 3095 3094 3094 3094 3093 3093 3092 3092 3091 3091 3090 3090 3090 3090 3089 3089 3089 3088 3088 3088 3088 3088 3088 3088 3087 3086 3086 3086 3086 3086 3086 3086 3086 3087 3088 3088 3088 3089 3090 3091 3092 3093 3094 3095 3096 3097 3099 3100 3100 3098 3100 3103 3105 3106 3107 3107 3108 3109 3111 3113 3114 3115 3116 3118 3120 3120 3120 3120 3121 3121
3093 3094 3095 3096 3096 3096 3096 3095 3095 3094 3094 3093 3093 3092 3092 3092 3091 3091 3091 3090 3090 3089 3089 3088 3088 3087 3087 3086 3086 3085 3085 3084 3084 3084 3084 3084 3084 3084 3083 3083 3082 3082 3082 3082 3081 3081 3080 3081 3082 3083 3083 3082 3083 3084 3085 3087 3088 3089 3089 3090 3091 3093 3095 3095 3094 3095 3097 3100 3101 3102 3102 3102 3104 3106 3108 3109 3110 3111 3113 3115 3116 3116 3117 3118 3118
3090 3091 3092 3093 3094 3093 3093 3093 3092 3091 3091 3090 3090 3089 3089 3088 3088 3088 3088 3087 3087 3086 3085 3085 3084 3084 3083 3083 3082 3082 3081 3080 3079 3079 3079 3079 3079 3079 3078 3078 3077 3077 3077 3077 3077 3076 3075 3075 3076 3077 3077 3077 3078 3079 3080 3081 3082 3083 3084 3085 3086 3088 3089 3090 3090 3090 3092 3094 3096 3097 3097 3097 3099 3102 3103 3104 3105 3107 3108 3110 3111 3112 3113 3114 3115
3087 3088 3089 3090 3090 3090 3090 3090 3089 3088 3088 3087 3087 3086 3086 3085 3085 3085 3085 3084 3084 3083 3082 3081 3081 3080 3080 3079 3079 3078 3077 3076 3075 3074 3074 3074 3074 3073 3073 3073 3072 3072 3072 3072 3072 3071 3070 3070 3071 3071 3071 3071 3072 3073 3074 3075 3076 3077 3079 3081 3082 3083 3085 3085 3085 3086 3087 3088 3090 3092 3093 3093 3094 3096 3098 3099 3101 3103 3104 3105 3106 3107 3109 3111 3112
3084 3085 3086 3086 3087 3087 3087 3087 3086 3085 3085 3084 3084 3083 3082 3082 3082 3081 3081 3080 3080 3079 3079 3078 3077 3076 3076 3075 3074 3073 3073 3072 3071 3070 3070 3069 3069 3068 3067 3067 3066 3066 3066 3066 3066 3066 3065 3065 3066 3066 3066 3065 3066 3068 3069 3069 3070 3071 3073 3075 3077 3078 3080 3080 3081 3081 3082 3083 3085 3087 3088 3089 3089 3090 3092 3094 3097 3098 3100 3100 3101 3103 3105 3107 3108
3080 3081 3082 3083 3083 3084 3083 3083 3083 3082 3081 3081 3080 3080 3079 3079 3078 3077 3077 3076 3076 3075 3075 3074 3073 3073 3072 3071 3070 3069 3068 3067 3066 3066 3065 3064 3064 3063 3062 3061 3060 3060 3061 3061 3061 3060 3060 3060 3061 3061 3061 3060 3061 3062 3063 3064 3065 3065 3067 3069 3071 3072 3074 3075 3076 3077 3077 3079 3081 3082 3082 3084 3085 3085 3087 3090 3092 3093 3095 3096 3098 3100 3102 3103 3104
3077 3078 3079 3079 3080 3080 3080 3079 3079 3079 3078 3077 3077 3076 3076 3075 3074 3074 3073 3072 3071 3071 3070 3069 3069 3068 3067 3067 3065 3064 3063 3062 3061 3060 3060 3059 3058 3057 3056 3055 3055 3054 3054 3055 3055 3055 3055 3055 3055 3056 3056 3055 3055 3056 3057 3058 3058 3059 3061 3062 3064 3066 3067 3069 3070 3072 3073 3074 3075 3076 3077 3078 3080 3080 3082 3085 3087 3087 3088 3091 3094 3096 3098 3099 3101
3073 3074 3075 3076 3077 3077 3076 3076 3075 3075 3075 3074 3073 3073 3072 3071 3071 3070 3069 3068 3067 3066 3065 3065 3064 3063 3063 3062 3061 3060 3058 3057 3056 3055 3054 3053 3052 3051 3051 3050 3049 3049 3048 3049 3049 3049 3049 3049 3050 3050 3051 3050 3050 3050 3051 3052 3052 3053 3055 3056 3057 3059 3060 3062 3064 3066 3067 3068 3070 3071 3072 3074 3076 3077 3077 3079 3080 3081 3083 3086 3089 3091 3093 3095 3097
3070 3071 3071 3072 3073 3073 3072 3072 3072 3071 3071 3070 3070 3069 3068 3068 3067 3066 3065 3064 3063 3061 3060 3060 3059 3058 3058 3057 3056 3054 3053 3052 3051 3050 3048 3047 3046 3045 3045 3044 3043 3043 3042 3043 3043 3043 3043 3044 3044 3044 3045 3045 3045 3045 3045 3046 3046 3046 3048 3050 3051 3053 3054 3056 3058 3059 3061 3062 3064 3066 3067 3068 3069 3071 3071 3073 3076 3079 3080 3081 3084 3086 3088 3090 3091
3065 3067 3068 3068 3069 3068 3068 3068 3068 3067 3067 3066 3066 3065 3064 3063 3062 3061 3060 3059 3058 3057 3056 3055 3054 3053 3052 3051 3050 3049 3048 3047 3045 3044 3043 3041 3040 3039 3038 3038 3037 3037 3036 3036 3036 3037 3037 3037 3038 3038 3039 3039 3039 3039 3040 3040 3040 3040 3042 3043 3045 3046 3048 3049 3052 3053 3055 3056 3058 3060 3062 3062 3063 3065 3066 3070 3073 3075 3076 3077 3078 3081 3084 3084 3085
3060 3062 3063 3064 3064 3064 3064 3064 3064 3063 3063 3062 3061 3061 3060 3059 3058 3057 3056 3054 3053 3052 3051 3050 3049 3047 3046 3045 3044 3043 3042 3041 3040 3038 3037 3035 3034 3033 3032 3032 3031 3030 3030 3030 3030 3030 3030 3030 3031 3031 3032 3033 3033 3033 3034 3034 3034 3035 3035 3037 3038 3039 3041 3042 3045 3048 3049 3050 3052 3054 3056 3057 3059 3060 3062 3065 3067 3069 3071 3073 3074 3075 3077 3079 3081
3055 3058 3059 3059 3059 3059 3059 3059 3059 3059 3058 3058 3057 3056 3055 3055 3054 3053 3051 3050 3048 3047 3046 3045 3043 3042 3041 3039 3038 3037 3036 3035 3034 3032 3031 3029 3028 3026 3025 3025 3024 3024 3024 3023 3023 3023 3023 3023 3023 3024 3025 3026 3026 3027 3027 3028 3028 3029 3029 3030 3032 3033 3034 3035 3037 3040 3043 3044 3046 3048 3050 3052 3054 3055 3057 3060 3062 3063 3066 3068 3068 3069 3071 3074 3076
3051 3053 3054 3055 3055 3055 3055 3055 3055 3055 3055 3054 3053 3052 3051 3050 3049 3048 3047 3045 3043 3042 3041 3040 3039 3037 3035 3034 3032 3031 3030 3029 3028 3026 3025 3023 3022 3020 3019 3018 3018 3017 3017 3017 3016 3016 3016 3016 3016 3016 3018 3019 3019 3020 3020 3021 3022 3022 3023 3024 3025 3026 3027 3028 3030 3033 3036 3038 3039 3041 3044 3047 3048 3050 3053 3056 3057 3058 3059 3061 3064 3066 3066 3068 3070
3047 3048 3049 3050 3051 3051 3051 3052 3052 3052 3051 3050 3049 3048 3047 3046 3045 3044 3042 3040 3039 3038 3037 3036 3034 3032 3030 3028 3026 3025 3024 3023 3021 3019 3018 3017 3015 3014 3012 3011 3011 3011 3010 3010 3009 3009 3009 3008 3008 3008 3009 3011 3012 3013 3013 3014 3015 3015 3016 3017 3018 3020 3021 3022 3024 3026 3028 3030 3032 3035 3039 3042 3043 3045 3048 3050 3050 3052 3054 3056 3059 3061 3062 3063 3065
3041 3043 3044 3046 3047 3047 3048 3049 3049 3048 3047 3046 3045 3044 3043 3042 3040 3039 3037 3035 3034 3033 3032 3030 3028 3026 3024 3022 3020 3019 3018 3016 3015 3013 3011 3010 3009 3007 3006 3004 3004 3004 3003 3003 3002 3002 3002 3001 3001 3000 3001 3002 3003 3005 3005 3006 3007 3008 3009 3010 3012 3013 3015 3017 3018 3019 3020 3022 3025 3028 3033 3037 3038 3040 3042 3044 3045 3047 3049 3051 3054 3055 3056 3057 3059
3035 3037 3039 3041 3042 3044 3045 3046 3045 3044 3043 3041 3041 3039 3038 3037 3036 3034 3032 3031 3030 3028 3026 3024 3022 3020 3018 3016 3014 3013 3012 3010 3008 3006 3005 3003 3002 3000 2999 2998 2997 2996 2996 2996 2996 2995 2995 2994 2994 2993 2993 2993 2994 2995 2997 2997 2998 3000 3001 3003 3005 3006 3008 3011 3013 3013 3014 3015 3017 3020 3025 3029 3032 3033 3036 3039 3041 3042 3043 3044 3046 3048 3050 3052 3053
3030 3033 3035 3036 3038 3040 3042 3042 3041 3039 3038 3037 3036 3035 3034 3032 3031 3029 3028 3026 3025 3022 3020 3018 3016 3014 3012 3010 3008 3007 3005 3004 3002 3000 2999 2997 2995 2994 2992 2991 2989 2989 2988 2988 2988 2988 2988 2988 2987 2985 2985 2985 2985 2985 2986 2987 2989 2991 2993 2995 2996 2998 3000 3004 3006 3008 3009 3010 3011 3014 3017 3021 3024 3026 3028 3031 3034 3036 3036 3037 3040 3043 3046 3047 3048
3026 3028 3031 3032 3034 3037 3038 3038 3036 3035 3034 3033 3032 3030 3029 3027 3026 3025 3023 3022 3020 3017 3015 3012 3010 3008 3006 3004 3003 3001 2999 2998 2996 2994 2992 2991 2989 2987 2985 2983 2981 2980 2980 2980 2980 2979 2979 2979 2979 2977 2976 2976 2976 2975 2976 2977 2978 2981 2983 2985 2987 2989 2993 2997 2999 3001 3003 3004 3005 3007 3010 3013 3016 3018 3021 3024 3026 3028 3029 3031 3035 3038 3039 3041 3043
3023 3025 3026 3028 3031 3033 3034 3033 3032 3031 3030 3029 3027 3026 3025 3023 3022 3021 3020 3017 3014 3012 3009 3007 3005 3003 3001 2999 2997 2995 2993 2992 2990 2988 2986 2984 2982 2979 2977 2974 2973 2972 2971 2971 2970 2970 2969 2970 2970 2969 2967 2967 2966 2965 2965 2966 2967 2970 2973 2975 2977 2981 2985 2988 2990 2993 2995 2997 2998 3000 3003 3006 3009 3012 3014 3017 3019 3020 3023 3027 3030 3032 3034 3036 3038
3019 3020 3021 3024 3028 3029 3028 3028 3028 3028 3026 3025 3023 3022 3021 3019 3018 3017 3015 3012 3009 3006 3004 3002 2999 2998 2996 2993 2991 2989 2987 2985 2984 2982 2980 2977 2974 2972 2969 2966 2964 2962 2961 2960 2959 2959 2959 2959 2960 2959 2958 2957 2956 2956 2955 2956 2956 2959 2961 2964 2968 2973 2977 2979 2981 2984 2987 2989 2992 2994 2996 2999 3002 3005 3009 3011 3013 3015 3018 3022 3024 3026 3030 3032 3033
3014 3016 3018 3021 3023 3024 3024 3024 3024 3023 3022 3021 3019 3018 3016 3015 3014 3012 3010 3007 3004 3001 2999 2997 2994 2992 2990 2988 2986 2984 2981 2979 2977 2975 2973 2970 2967 2964 2960 2957 2955 2953 2951 2950 2948 2948 2948 2948 2949 2949 2948 2947 2947 2947 2947 2947 2948 2948 2951 2954 2959 2963 2967 2969 2972 2975 2978 2981 2985 2988 2990 2993 2996 2999 3002 3005 3008 3010 3014 3016 3018 3021 3025 3027 3028
3011 3015 3017 3019 3020 3020 3020 3020 3020 3019 3018 3017 3016 3014 3012 3011 3009 3007 3005 3002 2999 2997 2994 2992 2989 2987 2985 2983 2980 2978 2976 2973 2971 2968 2966 2963 2960 2956 2952 2949 2946 2943 2940 2938 2937 2937 2937 2937 2938 2939 2938 2938 2937 2937 2938 2939 2939 2940 2942 2945 2948 2952 2955 2959 2963 2966 2969 2973 2977 2980 2984 2987 2990 2992 2995 2999 3002 3005 3008 3011 3013 3016 3019 3021 3024
3011 3014 3015 3017 3017 3017 3017 3017 3016 3016 3015 3013 3011 3010 3008 3006 3004 3002 3000 2997 2994 2992 2989 2987 2984 2981 2979 2978 2975 2972 2970 2967 2965 2962 2958 2955 2952 2948 2944 2941 2938 2934 2930 2928 2927 2928 2928 2928 2929 2930 2930 2929 2928 2928 2929 2930 2931 2932 2934 2936 2938 2941 2944 2948 2953 2958 2962 2965 2969 2973 2977 2981 2984 2987 2990 2993 2997 3000 3002 3005 3008 3011 3014 3016 3018
3009 3012 3014 3015 3015 3015 3014 3013 3013 3012 3011 3009 3007 3006 3004 3002 3000 2998 2996 2993 2990 2988 2985 2982 2979 2976 2973 2972 2969 2967 2964 2961 2958 2955 2951 2948 2944 2941 2937 2933 2930 2926 2923 2920 2920 2920 2920 2921 2921 2921 2921 2920 2920 2920 2921 2922 2922 2924 2926 2928 2931 2933 2934 2938 2944 2950 2954 2957 2962 2966 2971 2976 2979 2982 2985 2988 2991 2994 2997 2999 3002 3006 3008 3011 3014
3009 3011 3012 3013 3012 3011 3011 3010 3010 3008 3007 3006 3004 3003 3001 2999 2997 2995 2992 2990 2987 2984 2981 2977 2974 2971 2968 2966 2963 2961 2958 2955 2951 2948 2944 2940 2936 2932 2928 2925 2922 2919 2916 2914 2914 2914 2913 2914 2914 2914 2913 2913 2912 2912 2913 2914 2915 2917 2919 2921 2923 2924 2926 2930 2935 2941 2946 2951 2955 2960 2966 2971 2974 2977 2980 2983 2987 2990 2992 2994 2997 3000 3003 3006 3009
3008 3009 3010 3009 3008 3008 3008 3008 3007 3006 3005 3003 3002 3000 2998 2996 2994 2992 2989 2986 2983 2979 2976 2973 2969 2966 2963 2961 2957 2954 2952 2948 2944 2940 2936 2932 2928 2924 2921 2918 2916 2913 2910 2909 2908 2908 2907 2907 2907 2907 2906 2906 2906 2905 2906 2907 2909 2910 2911 2912 2913 2916 2919 2923 2927 2932 2938 2944 2949 2954 2960 2965 2969 2972 2975 2978 2981 2985 2988 2990 2992 2995 2998 3001 3005
3005 3006 3006 3005 3006 3006 3006 3005 3005 3004 3003 3002 3000 2998 2996 2994 2992 2989 2986 2983 2979 2976 2972 2969 2965 2962 2958 2955 2951 2948 2945 2941 2936 2932 2928 2924 2921 2917 2914 2911 2909 2907 2905 2904 2903 2902 2901 2901 2901 2900 2900 2900 2900 2899 2900 2901 2901 2902 2903 2903 2904 2907 2912 2916 2920 2925 2931 2937 2943 2949 2955 2960 2964 2968 2971 2974 2978 2981 2983 2986 2988 2991 2994 2997 3000
3003 3003 3003 3003 3003 3004 3003 3003 3002 3002 3001 3000 2998 2996 2995 2992 2990 2987 2983 2979 2976 2972 2969 2965 2961 2957 2953 2949 2945 2941 2938 2934 2930 2926 2921 2917 2913 2910 2907 2905 2903 2901 2900 2899 2898 2897 2896 2896 2895 2895 2894 2894 2894 2893 2893 2894 2894 2894 2895 2896 2898 2901 2905 2910 2914 2919 2924 2930 2936 2943 2949 2955 2960 2964 2967 2970 2974 2977 2979 2982 2985 2987 2990 2993 2995
3001 3001 3001 3001 3001 3001 3001 3001 3001 3000 3000 2998 2996 2994 2992 2990 2987 2984 2980 2976 2973 2969 2965 2962 2957 2952 2948 2944 2939 2935 2931 2927 2923 2919 2914 2909 2905 2902 2900 2898 2896 2895 2894 2893 2892 2891 2891 2891 2890 2890 2889 2888 2888 2888 2888 2888 2888 2887 2888 2889 2892 2896 2900 2904 2908 2913 2919 2925 2931 2938 2945 2951 2956 2960 2963 2967 2970 2973 2976 2979 2982 2984 2986 2989 2991
2999 2999 3000 3000 3000 3000 3000 2999 2999 2999 2998 2996 2994 2992 2990 2988 2985 2981 2977 2973 2970 2966 2963 2958 2953 2949 2945 2941 2936 2931 2925 2920 2916 2911 2907 2903 2900 2897 2895 2892 2890 2889 2889 2888 2887 2886 2886 2886 2885 2885 2884 2883 2883 2883 2883 2882 2882 2882 2883 2886 2889 2892 2896 2900 2904 2910 2916 2922 2929 2936 2942 2947 2951 2956 2960 2963 2967 2970 2973 2975 2978 2980 2983 2985 2988
2997 2998 2998 2999 2999 2999 2998 2998 2997 2997 2996 2994 2992 2990 2988 2985 2982 2978 2975 2971 2968 2964 2960 2956 2952 2947 2942 2937 2933 2928 2922 2916 2911 2906 2902 2898 2895 2893 2890 2888 2886 2885 2884 2883 2883 2882 2882 2882 2881 2881 2880 2880 2880 2880 2879 2879 2879 2880 2883 2886 2889 2891 2894 2898 2903 2908 2914 2921 2928 2934 2939 2944 2948 2953 2956 2960 2964 2967 2969 2972 2974 2977 2979 2982 2985
2996 2996 2997 2998 2999 2998 2997 2996 2996 2995 2994 2992 2990 2988 2985 2982 2979 2975 2972 2969 2966 2963 2959 2954 2950 2946 2940 2935 2929 2923 2918 2912 2907 2902 2898 2895 2892 2889 2887 2885 2883 2883 2882 2881 2880 2880 2879 2878 2878 2877 2877 2878 2878 2878 2877 2878 2880 2883 2885 2888 2890 2891 2894 2898 2903 2909 2915 2921 2927 2932 2937 2942 2946 2950 2953 2957 2961 2963 2966 2969 2971 2973 2976 2978 2981
2996 2996 2997 2998 2998 2997 2996 2995 2995 2993 2991 2989 2988 2986 2984 2980 2977 2974 2971 2968 2965 2962 2957 2953 2949 2944 2939 2933 2927 2920 2914 2909 2903 2899 2895 2891 2889 2886 2884 2883 2881 2881 2880 2879 2878 2877 2876 2876 2875 2875 2875 2876 2877 2877 2877 2879 2882 2884 2886 2888 2890 2892 2895 2899 2905 2911 2916 2922 2926 2931 2936 2940 2944 2947 2951 2955 2958 2961 2963 2965 2968 2971 2973 2975 2977
2996 2996 2997 2997 2996 2996 2995 2994 2993 2991 2989 2987 2986 2985 2982 2979 2975 2972 2970 2967 2964 2960 2957 2953 2948 2942 2937 2931 2925 2919 2912 2906 2901 2896 2892 2889 2886 2884 2882 2880 2880 2879 2879 2878 2876 2875 2875 2874 2874 2874 2875 2876 2877 2878 2879 2881 2883 2885 2886 2888 2890 2892 2895 2899 2904 2909 2915 2920 2925 2929 2934 2938 2941 2945 2949 2952 2955 2958 2960 2962 2965 2967 2970 2971 2973
2996 2996 2996 2995 2995 2995 2994 2993 2991 2989 2988 2986 2985 2984 2981 2977 2974 2971 2969 2966 2962 2959 2956 2952 2946 2941 2935 2930 2924 2917 2910 2904 2899 2894 2890 2887 2884 2882 2880 2879 2878 2877 2877 2876 2875 2874 2874 2874 2874 2874 2875 2876 2877 2878 2880 2881 2883 2885 2887 2889 2891 2893 2896 2899 2903 2908 2913 2918 2923 2927 2932 2935 2939 2943 2947 2950 2952 2955 2957 2960 2962 2964 2967 2969 2971
2995 2995 2995 2994 2994 2993 2992 2991 2989 2987 2986 2985 2984 2982 2979 2976 2973 2970 2967 2964 2961 2957 2954 2950 2945 2940 2935 2930 2924 2916 2909 2903 2898 2893 2889 2885 2882 2880 2879 2878 2877 2876 2875 2874 2873 2873 2873 2873 2873 2873 2874 2875 2877 2878 2880 2882 2883 2885 2887 2889 2891 2893 2896 2899 2904 2908 2912 2916 2921 2926 2929 2933 2937 2941 2944 2947 2950 2952 2955 2957 2959 2961 2964 2966 2968
2993 2993 2993 2993 2992 2992 2991 2990 2988 2986 2985 2984 2983 2981 2978 2976 2973 2969 2966 2963 2960 2956 2952 2948 2944 2939 2935 2929 2923 2916 2910 2904 2898 2893 2889 2885 2882 2880 2878 2877 2876 2874 2873 2872 2872 2872 2872 2873 2873 2873 2874 2875 2876 2878 2880 2882 2883 2885 2887 2889 2891 2893 2896 2900 2904 2908 2912 2916 2920 2924 2927 2931 2935 2938 2941 2944 2947 2950 2952 2954 2956 2959 2961 2963 2965
2992 2992 2992 2991 2990 2990 2990 2988 2986 2985 2984 2983 2982 2979 2977 2975 2972 2969 2966 2963 2959 2955 2951 2947 2943 2938 2934 2928 2923 2916 2911 2905 2899 2894 2890 2886 2883 2880 2878 2876 2875 2873 2872 2871 2871 2871 2871 2872 2872 2873 2873 2875 2876 2877 2879 2881 2884 2885 2887 2889 2890 2893 2896 2900 2904 2907 2911 2915 2919 2922 2926 2930 2933 2936 2939 2942 2944 2946 2948 2950 2953 2955 2957 2959 2961
2992 2991 2991 2990 2990 2989 2989 2987 2986 2985 2984 2982 2981 2978 2976 2974 2971 2968 2966 2963 2958 2954 2951 2947 2942 2938 2934 2928 2922 2917 2911 2905 2899 2895 2891 2887 2883 2880 2878 2876 2874 2873 2872 2871 2870 2870 2870 2871 2872 2872 2873 2874 2875 2877 2878 2881 2883 2885 2888 2889 2891 2893 2896 2899 2902 2905 2909 2912 2916 2920 2924 2928 2931 2934 2937 2938 2940 2942 2944 2947 2949 2952 2954 2956 2959
2991 2990 2989 2989 2988 2988 2987 2986 2985 2984 2983 2982 2979 2977 2974 2973 2970 2968 2966 2963 2959 2955 2951 2947 2943 2939 2934 2929 2922 2917 2911 2905 2900 2896 2892 2888 2884 2881 2878 2876 2874 2873 2872 2871 2870 2870 2871 2871 2872 2872 2873 2873 2874 2876 2878 2880 2882 2885 2887 2890 2891 2893 2895 2898 2901 2904 2906 2910 2914 2918 2923 2926 2929 2932 2934 2935 2937 2939 2941 2944 2948 2950 2953 2955 2957
2989 2989 2988 2987 2987 2986 2985 2985 2984 2983 2982 2980 2978 2976 2973 2971 2969 2968 2966 2963 2959 2956 2952 2948 2944 2940 2935 2930 2924 2919 2913 2908 2902 2897 2893 2889 2885 2882 2879 2876 2875 2873 2872 2871 2871 2871 2871 2871 2871 2872 2872 2873 2874 2875 2877 2879 2881 2883 2886 2889 2891 2893 2894 2897 2900 2903 2905 2909 2913 2917 2921 2924 2927 2929 2931 2933 2935 2938 2940 2943 2946 2949 2951 2953 2955
2988 2987 2987 2986 2985 2985 2984 2983 2983 2982 2981 2979 2977 2975 2973 2971 2969 2967 2966 2963 2960 2957 2954 2950 2946 2941 2937 2932 2927 2922 2917 2911 2905 2900 2895 2891 2887 2883 2881 2878 2876 2874 2872 2871 2871 2871 2871 2871 2871 2872 2872 2873 2874 2874 2876 2878 2880 2882 2885 2887 2890 2892 2894 2896 2899 2902 2905 2908 2912 2915 2919 2922 2925 2927 2929 2931 2934 2937 2939 2942 2944 2946 2948 2950 2953
2987 2986 2986 2985 2985 2984 2983 2983 2982 2982 2980 2978 2976 2974 2972 2970 2969 2967 2965 2963 2961 2958 2955 2951 2947 2943 2938 2934 2930 2925 2920 2914 2908 2903 2898 2894 2889 2885 2882 2880 2878 2876 2874 2872 2872 2871 2871 2871 2871 2872 2872 2873 2874 2875 2876 2878 2880 2882 2884 2886 2889 2892 2894 2896 2899 2902 2905 2908 2911 2914 2917 2920 2923 2925 2927 2930 2933 2936 2938 2940 2942 2944 2946 2949 2952
2985 2985 2985 2984 2984 2983 2983 2982 2982 2981 2979 2977 2976 2974 2972 2970 2968 2966 2965 2963 2962 2960 2956 2952 2949 2944 2940 2936 2932 2927 2922 2917 2911 2906 2902 2898 2893 2888 2885 2882 2880 2878 2876 2874 2872 2872 2871 2871 2871 2872 2872 2873 2874 2875 2877 2878 2880 2882 2884 2886 2889 2891 2894 2896 2899 2901 2904 2907 2910 2913 2916 2919 2921 2924 2927 2929 2931 2934 2936 2938 2940 2943 2945 2948 2951
2985 2985 2984 2983 2983 2982 2982 2981 2981 2979 2978 2977 2976 2974 2973 2970 2968 2966 2964 2963 2963 2961 2957 2953 2950 2946 2942 2938 2934 2929 2925 2920 2915 2910 2905 2901 2897 2892 2888 2885 2883 2881 2878 2876 2874 2873 2872 2872 2872 2872 2872 2872 2873 2875 2877 2879 2880 2882 2884 2886 2888 2891 2894 2896 2899 2901 2904 2907 2910 2913 2916 2918 2921 2923 2926 2928 2930 2932 2934 2937 2940 2942 2945 2948 2952
2985 2984 2984 2983 2983 2982 2982 2981 2980 2979 2978 2977 2976 2975 2973 2971 2969 2967 2965 2963 2962 2960 2958 2955 2951 2948 2945 2941 2937 2932 2928 2924 2919 2914 2910 2905 2901 2896 2892 2889 2886 2883 2881 2879 2876 2875 2874 2874 2873 2872 2872 2872 2872 2874 2876 2878 2880 2882 2884 2886 2888 2891 2893 2895 2898 2900 2903 2906 2909 2912 2915 2917 2920 2922 2924 2927 2929 2932 2934 2937 2940 2943 2946 2949 2953
2985 2984 2983 2983 2983 2982 2981 2980 2979 2979 2978 2977 2976 2975 2973 2972 2970 2968 2966 2964 2962 2960 2958 2956 2953 2950 2946 2943 2939 2935 2931 2927 2923 2918 2914 2910 2905 2901 2897 2893 2890 2887 2885 2883 2880 2878 2877 2877 2876 2875 2874 2874 2874 2874 2876 2877 2879 2881 2883 2885 2888 2891 2893 2895 2897 2899 2902 2905 2908 2911 2914 2916 2918 2921 2923 2926 2928 2932 2935 2938 2941 2944 2948 2951 2954
2985 2984 2983 2983 2982 2982 2981 2980 2979 2978 2978 2977 2976 2975 2973 2972 2971 2969 2967 2965 2963 2961 2959 2957 2954 2951 2948 2945 2942 2938 2934 2930 2926 2922 2918 2914 2909 2905 2902 2898 2895 2892 2889 2887 2885 2883 2881 2880 2879 2878 2878 2877 2877 2877 2877 2878 2880 2881 2883 2885 2888 2890 2892 2894 2896 2899 2901 2904 2907 2910 2913 2915 2918 2920 2923 2926 2929 2932 2936 2939 2942 2946 2949 2952 2954
2984 2984 2983 2983 2982 2981 2981 2980 2979 2978 2977 2977 2976 2975 2974 2972 2971 2970 2968 2966 2964 2962 2960 2958 2956 2953 2951 2948 2945 2942 2938 2934 2930 2926 2922 2918 2914 2910 2906 2903 2900 2897 2894 2891 2889 2887 2885 2884 2883 2882 2882 2881 2881 2881 2881 2881 2882 2883 2884 2886 2888 2891 2893 2895 2897 2899 2901 2904 2907 2910 2913 2916 2919 2921 2924 2928 2931 2934 2937 2941 2944 2947 2950 2952 2955
2984 2983 2983 2983 2982 2981 2981 2980 2979 2978 2977 2976 2975 2974 2973 2972 2971 2970 2968 2967 2965 2963 2961 2959 2957 2955 2953 2950 2947 2944 2941 2938 2934 2930 2926 2922 2918 2915 2912 2908 2905 2902 2899 2896 2893 2892 2890 2889 2887 2887 2886 2885 2885 2885 2885 2885 2885 2886 2887 2889 2890 2892 2894 2896 2899 2901 2903 2906 2909 2912 2915 2918 2921 2924 2927 2930 2933 2936 2939 2942 2945 2948 2950 2953 2956
2983 2983 2983 2983 2982 2981 2980 2980 2979 2978 2977 2976 2975 2974 2973 2972 2971 2970 2968 2967 2966 2964 2962 2960 2958 2956 2954 2952 2950 2947 2944 2941 2938 2934 2931 2927 2923 2920 2917 2914 2911 2908 2905 2902 2900 2897 2895 2894 2893 2892 2891 2890 2890 2890 2890 2890 2890 2891 2891 2892 2894 2895 2897 2899 2901 2904 2906 2909 2912 2915 2918 2921 2924 2927 2930 2933 2935 2938 2941 2944 2946 2949 2952 2955 2958